Regional Weather Roundup
Issued by NWS Austin/San Antonio, TX

Home | Current Version | Previous Version | Text Only | Print | Product List | Glossary On
Versions: 1 2 3 4 5 6 7 8 9 10 11 12 13 14 15 16 17 18 19 20 21 22 23 24 25 26 27 28 29 30 31 32 33 34 35 36 37 38 39 40 41 42 43 44 45 46 47 48 49 50
000
ASUS44 KEWX 191702
RWREWX
SOUTH TEXAS REGIONAL WEATHER ROUNDUP
NATIONAL WEATHER SERVICE AUSTIN/SAN ANTONIO TX
1100 AM CST MON FEB 19 2018

NOTE: "FAIR" INDICATED FEW OR NO CLOUDS BELOW 12,000 FEET WITH NO
SIGNIFICANT WEATHER AND/OR OBSTRUCTIONS TO VISIBILITY.

* - THESE STATIONS ARE NOT NWS OR FAA STATIONS...AND ARE NOT SUBJECT
    TO NWS AND FAA QUALITY CONTROL.

TXZ171-172-183>190-191800-
TEXAS HILL COUNTRY AND EDWARDS PLATEAU

CITY           SKY/WX    TMP DP  RH WIND       PRES   REMARKS
JUNCTION       CLOUDY    69  62  78 S21G30    29.87R
*LLANO         NOT AVBL
BURNET         CLOUDY    73  61  65 S17G33    29.92F
*HORSESHOE BAY CLOUDY    75  61  62 S17G32    29.89R
*KERRVILLE     CLOUDY    72  63  74 S23G29    29.92F
*FREDERICKSBRG CLOUDY    72  59  63 S18G28    29.91S
*ROCKSPRINGS   CLOUDY    64  61  88 S16G26    29.95S
*BOERNE STAGE  CLOUDY    68  61  77 S18G25    29.95S
*CASTROVILLE   CLOUDY    73  61  67 S18G24    29.94S
HONDO          CLOUDY    76  62  62 S21       29.92S
*UVALDE        CLOUDY    72  63  72 S15       29.90F
DEL RIO        CLOUDY    70  65  84 SE13G21   29.85S
LAUGHLIN AFB   CLOUDY    70  64  81 SE14      29.86S
CARRIZO SPRGS  CLOUDY    73  63  68 S17G24    29.87S
*EAGLE PASS    CLOUDY    72  64  78 S9        29.87F
*FAITH RANCH   MOSUNNY   77  64  65 S15G22    29.87S
$$

TXZ173-191>194-202-209-217>225-228-191800-
CENTRAL AND SOUTH CENTRAL TEXAS

CITY           SKY/WX    TMP DP  RH WIND       PRES   REMARKS
GEORGETOWN     CLOUDY    74  63  68 S23G38    29.93F
AUSTIN/BERGSTM CLOUDY    76  65  68 S29G43    29.92F
AUSTIN/MABRY   CLOUDY    76  63  64 S13G24    29.93S
*AUSTIN/EXEC   PTSUNNY   75  63  64 S20G35    29.93S
*LAGO VISTA    CLOUDY    73  63  71 S15G25    29.93S
SAN MARCOS     CLOUDY    77  63  61 S25G35    29.94F
NEW BRAUNFELS  CLOUDY    76  62  62 S20G30    29.93S
RANDOLPH AFB   CLOUDY    73  63  70 S17       29.94S
PT SAN ANTONIO CLOUDY    75  64  67 S21       29.92S
SAN ANTONIO    CLOUDY    73  62  68 S22G33    29.94S
STINSON FIELD  CLOUDY    76  64  66 S15G25    29.92S
*LA GRANGE     CLOUDY    77  67  70 S20G31    29.94F
*GIDDINGS      PTSUNNY   75  63  66 S16G28    29.96F
*GONZALES      CLOUDY    77  66  68 S22G38    29.94F
$$

TXZ163>164-176>182-195>201-210>213-226-227-235-191800-
SOUTHEAST TEXAS

CITY           SKY/WX    TMP DP  RH WIND       PRES   REMARKS
COLLEGE STN    CLOUDY    75  65  70 S20G32    29.97S
*BRYAN         CLOUDY    74  64  69 S20G31    29.98F
*CALDWELL      CLOUDY    74  64  70 S24G36    29.97S
*CROCKETT      LGT RAIN  73  64  73 S14G22    30.02S
*BRENHAM       CLOUDY    76  65  68 S20G29    29.98F
HUNTSVILLE     PTSUNNY   75  63  66 S14G24    30.00F
CONROE         PTSUNNY   77  66  68 S17G26    30.02S
HOUSTON BUSH   PTSUNNY   77  66  68 S13G23    30.03S
HOUSTON HOBBY  PTSUNNY   76  68  76 S14G25    30.03R
*HOUSTON SW AP CLOUDY    75  67  76 SE13G22   30.04S
PEARLAND       CLOUDY    75  68  78 S20G26    30.05R
HOUSTON HOOKS  PTSUNNY   77  66  68 S12G20    30.02S
ELLINGTON FLD  PTSUNNY   75  70  83 S16G25    30.06R
SUGAR LAND     PTSUNNY   79  66  64 S22G29    30.02R
*HOUSTON EXEC  PTSUNNY   77  66  69 S18G26    30.02F
*CLEVELAND MUN CLOUDY    77  62  60 S15       30.04F
*WHARTON       PTSUNNY   76  65  68 S24       30.01S
*COLUMBUS      CLOUDY    75  66  72 S17G24    30.00S
*EAGLE LAKE    CLOUDY    77  68  74 S23G29    29.99F
$$

TXZ214>216-236>238-191800-
THE UPPER TEXAS COAST

CITY           SKY/WX    TMP DP  RH WIND       PRES   REMARKS
*ORANGE        FAIR      76  68  76 S14G20    30.10S
PORT ARTHUR    FAIR      78  64  61 S20G26    30.07S
GALVESTON      FAIR      75  68  78 SE21      30.06R
ANGLETON       PTSUNNY   77  66  68 S24G32    30.03S
*BAY CITY      CLOUDY    77  69  74 S22G32    30.02S
PALACIOS       PTSUNNY   75  70  84 SE22G35   29.99F
$$

TXZ229>234-239>247-191800-
TEXAS COASTAL BEND AND RIO GRANDE PLAINS

CITY           SKY/WX    TMP DP  RH WIND       PRES   REMARKS
VICTORIA       CLOUDY    78  66  66 S25G37    29.96F
*BEEVILLE      CLOUDY    75  68  77 S23G35    29.92S
ROCKPORT       SUNNY     76  68  76 SE15G26   29.95F HAZE
*PORT ARANSAS  NOT AVBL
*PORT LAVACA   PTSUNNY   77  68  73 SE23G33   29.98S
*INGLESIDE     SUNNY     77  69  77 MISG      29.94F
CORPUS CHRISTI CLOUDY    76  70  82 S29G36    29.93F
CORPUS NAS     CLOUDY    78  70  76 SE24      29.94F
*ROBSTOWN      PTSUNNY   77  69  75 S31G38    29.93S
ALICE          CLOUDY    81  65  58 S23G33    29.89F
KINGSVILLE NAS CLOUDY    80  69  69 SE18G30   29.91S
COTULLA        CLOUDY    76  64  66 S12G23    29.89S
LAREDO         CLOUDY    80  64  58 S17       29.88S
$$

TXZ248>255-191800-
DEEP SOUTH TEXAS

CITY           SKY/WX    TMP DP  RH WIND       PRES   REMARKS
BROWNSVILLE    CLOUDY    80  70  71 S30G41    29.95F
PORT ISABEL    CLOUDY    81  68  64 SE33G41   29.93S
*SOUTH PADRE   NOT AVBL
HARLINGEN      PTSUNNY   80  70  71 S29G37    29.92F
*HEBBRONVILLE  MOSUNNY   77  63  62 S22G31    29.90S
MCALLEN        MOSUNNY   85  69  58 S23G37    29.90S
*WESLACO       NOT AVBL
FALFURRIAS     CLOUDY    82  66  60 S22G33    29.90S
EDINBURG       CLOUDY    83  66  55 S17G32    29.91S
*ZAPATA        FAIR      80  61  53 S15G22    29.87R
$$

TXZ213>215-236>238-242>244-246-247-251-254-255-191800-
CMAN STATIONS

STATION/POSITION TIME  TEMP    WIND        PRES    WAVE
                       AIR SEA DIR/SP/G            HT/PER
                 (UTC) (F)     (DEG/KT/KT) (MB)    (FT/S)
SABINE PASS      1630   67 67  140/ 10/ 12 1020.2
SEA RIM ST PARK  1600   67     130/  8/  9 1018.8
NORTH JETTY/GLS  1630      61  140/ 11/ 13 1017.4
EAGLE POINT      1630   69 66  170/ 15/ 17 1017.6
MORGANS POINT    1630   70 62  140/ 11/ 15 1017.5
PORT O`CONNOR    1630   67 62  140/ 17/ 18 1015.2
MALAQUITE BEACH  1630   89 63  120/ 16/ 17 1013.8
BAFFIN BAY       1630   69 69  130/ 19/ 22 1014.1
PORT ISABEL      1630   71 65  150/ 17/ 21 1014.5
$$




USA.gov is the U.S. government's official web portal to all federal, state and local government web resources and services.